Payson, AZ

11:17 AM MST on October 19, 2017 (GMT -0700)
Payson

Weather History for KPAN - November, 2013

Change the Weather History Date:

Monday, November 18, 2013

  Actual Average Record
Temperature  
Mean Temperature 52 °F -  
Max Temperature 64 °F 59 °F 64 °F (2013)
Min Temperature 41 °F 29 °F 33 °F (2015)
Degree Days  
Heating Degree Days 12    
Growing Degree Days 2 (Base 50)    
Moisture  
Dew Point 36 °F    
Average Humidity 59    
Maximum Humidity 81    
Minimum Humidity 32    
Precipitation  
Precipitation 0.00 in - - ()
Sea Level Pressure  
Sea Level Pressure 30.19 in    
Wind  
Wind Speed 2 mph (South)    
Max Wind Speed 12 mph    
Max Gust Speed 15 mph    
Visibility 10 miles    
Events      
Averages and records for this station are not official NWS values.
T = Trace of Precipitation, MM = Missing Value Source: NWS Daily Summary

Daily Weather History Graph

Daily Weather History Graph

Search for Another Location

Airport or City:

Trip Planner

Search our weather history database for the weather conditions in past years. The results will help you decide how hot, cold, wet, or windy it might be!

Date:

Astronomy

Nov. 18, 2013 Rise Set
Actual Time 7:01 AM MST 5:19 PM MST
Civil Twilight 6:34 AM MST 5:46 PM MST
Nautical Twilight 6:04 AM MST 6:16 PM MST
Astronomical Twilight 5:34 AM MST 6:46 PM MST
Moon 6:25 PM MST (11/18) 7:52 AM MST (11/18)
Length of Visible Light 11h 11m
Length of Day
10h 17m
Full, 99% of the Moon is Illuminated
Nov 18
Full
Nov 25
Last Quarter
Dec 2
New
Dec 9
First Quarter
Dec 17
Full

Hourly Weather History & Observations

Time (MST) Temp. Windchill Dew Point Humidity Pressure Visibility Wind Dir Wind Speed Gust Speed Precip Events Conditions
12:15 AM 42.8 °F - 33.8 °F 70% 30.20 in 10.0 mi Calm Calm - N/A   Clear
12:35 AM 42.8 °F - 33.8 °F 70% 30.20 in 10.0 mi Calm Calm - N/A   Clear
12:55 AM 42.8 °F - 35.6 °F 76% 30.20 in 10.0 mi Calm Calm - N/A   Clear
1:15 AM 42.8 °F - 35.6 °F 76% 30.20 in 10.0 mi Calm Calm - N/A   Clear
1:35 AM 41.0 °F - 35.6 °F 81% 30.20 in 10.0 mi Calm Calm - N/A   Clear
1:55 AM 42.8 °F - 35.6 °F 76% 30.20 in 10.0 mi Calm Calm - N/A   Clear
2:15 AM 42.8 °F - 37.4 °F 81% 30.20 in 10.0 mi Calm Calm - N/A   Clear
2:35 AM 42.8 °F - 35.6 °F 76% 30.20 in 10.0 mi Calm Calm - N/A   Clear
2:55 AM 41.0 °F - 35.6 °F 81% 30.19 in 10.0 mi Calm Calm - N/A   Clear
3:15 AM 41.0 °F - 35.6 °F 81% 30.20 in 10.0 mi Calm Calm - N/A   Clear
3:35 AM 41.0 °F - 35.6 °F 81% 30.20 in 10.0 mi Calm Calm - N/A   Clear
3:55 AM 42.8 °F - 37.4 °F 81% 30.20 in 10.0 mi Calm Calm - N/A   Clear
4:15 AM 44.6 °F 41.4 °F 37.4 °F 76% 30.20 in 10.0 mi ENE 5.8 mph - N/A   Clear
4:35 AM 46.4 °F 44.3 °F 37.4 °F 71% 30.20 in 10.0 mi East 4.6 mph - N/A   Clear
4:55 AM 42.8 °F - 37.4 °F 81% 30.19 in 10.0 mi Calm Calm - N/A   Clear
5:15 AM 41.0 °F - 35.6 °F 81% 30.20 in 10.0 mi Calm Calm - N/A   Clear
5:35 AM 41.0 °F - 35.6 °F 81% 30.20 in 10.0 mi Calm Calm - N/A   Clear
5:55 AM 41.0 °F - 35.6 °F 81% 30.20 in 10.0 mi Calm Calm - N/A   Clear
6:15 AM 41.0 °F - 35.6 °F 81% 30.20 in 10.0 mi Calm Calm - N/A   Clear
6:35 AM 41.0 °F - 35.6 °F 81% 30.20 in 10.0 mi Calm Calm - N/A   Clear
6:55 AM 41.0 °F - 35.6 °F 81% 30.21 in 10.0 mi Calm Calm - N/A   Clear
7:15 AM 41.0 °F 39.0 °F 35.6 °F 81% 30.22 in 10.0 mi NNW 3.5 mph - N/A   Clear
7:35 AM 41.0 °F - 35.6 °F 81% 30.22 in 10.0 mi Calm Calm - N/A   Clear
7:55 AM 42.8 °F - 37.4 °F 81% 30.23 in 10.0 mi Calm Calm - N/A   Clear
8:15 AM 42.8 °F - 37.4 °F 81% 30.23 in 10.0 mi Calm Calm - N/A   Clear
8:35 AM 50.0 °F - 41.0 °F 71% 30.23 in 10.0 mi Calm Calm - N/A   Clear
8:55 AM 53.6 °F - 39.2 °F 58% 30.24 in 10.0 mi East 4.6 mph - N/A   Clear
9:15 AM 55.4 °F - 41.0 °F 58% 30.24 in 10.0 mi Calm Calm - N/A   Clear
9:35 AM 57.2 °F - 41.0 °F 55% 30.24 in 10.0 mi Calm Calm - N/A   Clear
9:55 AM 57.2 °F - 39.2 °F 51% 30.24 in 10.0 mi Variable 3.5 mph - N/A   Clear
10:15 AM 57.2 °F - 39.2 °F 51% 30.24 in 10.0 mi Variable 4.6 mph - N/A   Clear
10:35 AM 59.0 °F - 41.0 °F 51% 30.25 in 10.0 mi Calm Calm - N/A   Clear
10:55 AM 59.0 °F - 39.2 °F 48% 30.24 in 10.0 mi Calm Calm - N/A   Scattered Clouds
11:15 AM 60.8 °F - 39.2 °F 45% 30.24 in 10.0 mi Variable 3.5 mph - N/A   Scattered Clouds
11:35 AM 60.8 °F - 39.2 °F 45% 30.23 in 10.0 mi Variable 4.6 mph - N/A   Mostly Cloudy
11:55 AM 60.8 °F - 39.2 °F 45% 30.22 in 10.0 mi Variable 4.6 mph 12.7 mph N/A   Mostly Cloudy
12:15 PM 62.6 °F - 39.2 °F 42% 30.21 in 10.0 mi SW 11.5 mph - N/A   Partly Cloudy
12:35 PM 64.4 °F - 37.4 °F 37% 30.20 in 10.0 mi Variable 5.8 mph 13.8 mph N/A   Clear
12:55 PM 64.4 °F - 37.4 °F 37% 30.19 in 10.0 mi SSW 10.4 mph - N/A   Clear
1:15 PM 64.4 °F - 37.4 °F 37% 30.18 in 10.0 mi SSW 9.2 mph - N/A   Clear
1:35 PM 62.6 °F - 35.6 °F 37% 30.18 in 10.0 mi Variable 5.8 mph 13.8 mph N/A   Partly Cloudy
1:55 PM 64.4 °F - 37.4 °F 37% 30.17 in 10.0 mi SSW 8.1 mph - N/A   Clear
2:15 PM 64.4 °F - 35.6 °F 34% 30.16 in 10.0 mi SW 9.2 mph - N/A   Clear
2:35 PM 62.6 °F - 35.6 °F 37% 30.16 in 10.0 mi South 6.9 mph 13.8 mph N/A   Clear
2:55 PM 62.6 °F - 33.8 °F 34% 30.16 in 10.0 mi Variable 8.1 mph - N/A   Clear
3:15 PM 62.6 °F - 33.8 °F 34% 30.15 in 10.0 mi SSW 8.1 mph - N/A   Clear
3:35 PM 62.6 °F - 33.8 °F 34% 30.14 in 10.0 mi SW 8.1 mph - N/A   Clear
3:55 PM 64.4 °F - 33.8 °F 32% 30.14 in 10.0 mi Variable 6.9 mph 15.0 mph N/A   Clear
4:15 PM 62.6 °F - 33.8 °F 34% 30.14 in 10.0 mi Variable 4.6 mph - N/A   Clear
4:35 PM 62.6 °F - 33.8 °F 34% 30.14 in 10.0 mi SSW 6.9 mph - N/A   Clear
4:55 PM 60.8 °F - 32.0 °F 34% 30.15 in 10.0 mi SSW 3.5 mph - N/A   Clear
5:15 PM 59.0 °F - 33.8 °F 39% 30.15 in 10.0 mi Calm Calm - N/A   Clear
5:35 PM 57.2 °F - 35.6 °F 44% 30.15 in 10.0 mi Calm Calm - N/A   Clear
5:55 PM 57.2 °F - 35.6 °F 44% 30.15 in 10.0 mi South 3.5 mph - N/A   Clear
6:15 PM 55.4 °F - 37.4 °F 51% 30.15 in 10.0 mi Calm Calm - N/A   Clear
6:35 PM 55.4 °F - 37.4 °F 51% 30.16 in 10.0 mi Calm Calm - N/A   Clear
6:55 PM 55.4 °F - 37.4 °F 51% 30.15 in 10.0 mi SSE 4.6 mph - N/A   Clear
7:15 PM 55.4 °F - 37.4 °F 51% 30.16 in 10.0 mi Calm Calm - N/A   Clear
7:35 PM 51.8 °F - 35.6 °F 54% 30.16 in 10.0 mi Calm Calm - N/A   Clear
7:55 PM 50.0 °F - 35.6 °F 58% 30.16 in 10.0 mi Calm Calm - N/A   Clear
8:15 PM 50.0 °F - 33.8 °F 54% 30.16 in 10.0 mi Calm Calm - N/A   Clear
8:35 PM 50.0 °F - 33.8 °F 54% 30.17 in 10.0 mi NNE 3.5 mph - N/A   Clear
8:55 PM 50.0 °F - 33.8 °F 54% 30.17 in 10.0 mi Calm Calm - N/A   Clear
9:15 PM 51.8 °F - 35.6 °F 54% 30.16 in 10.0 mi NE 4.6 mph - N/A   Clear
9:35 PM 51.8 °F - 35.6 °F 54% 30.17 in 10.0 mi Calm Calm - N/A   Clear
9:55 PM 46.4 °F - 33.8 °F 62% 30.17 in 10.0 mi Calm Calm - N/A   Clear
10:15 PM 46.4 °F - 33.8 °F 62% 30.17 in 10.0 mi Calm Calm - N/A   Clear
10:35 PM 46.4 °F - 33.8 °F 62% 30.16 in 10.0 mi Calm Calm - N/A   Clear
10:55 PM 46.4 °F - 33.8 °F 62% 30.16 in 10.0 mi Calm Calm - N/A   Clear
11:15 PM 44.6 °F - 33.8 °F 66% 30.15 in 10.0 mi Calm Calm - N/A   Clear
11:35 PM 44.6 °F - 33.8 °F 66% 30.15 in 10.0 mi Calm Calm - N/A   Clear
11:55 PM 44.6 °F - 33.8 °F 66% 30.15 in 10.0 mi Calm Calm - N/A   Clear